Dubuque, IA

5:20 AM CDT on October 16, 2019 (GMT -0500)
Dubuque Regional

Weather History for KDBQ - August, 2019

Change the Weather History Date:

Sunday, August 18, 2019

  Actual Average Record
Temperature  
Mean Temperature 71 °F 70 °F  
Max Temperature 79 °F 80 °F 107 °F (1936)
Min Temperature 62 °F 60 °F 46 °F (1963)
Degree Days  
Heating Degree Days 0 1  
Month to date heating degree days 0 3  
Since 1 June heating degree days 29 51  
Since 1 July heating degree days 0 11  
Cooling Degree Days 6 6  
Month to date cooling degree days 96 113  
Year to date cooling degree days 549 513  
Since 1 June cooling degree days 523 476  
Growing Degree Days 20 (Base 50)    
Moisture  
Dew Point 65 °F    
Average Humidity 84    
Maximum Humidity 100    
Minimum Humidity 67    
Precipitation  
Precipitation 1.06 in 0.15 in 3.55 in (1912)
Month to date precipitation 4.29 2.61  
Year to date precipitation 30.40 24.19  
Snow  
Snow 0.00 in 0.00 in - ()
Month to date snowfall 0.0 0.0  
Since 1 June snowfall 0.0 0.0  
Since 1 July snowfall 0.0 0.0  
Snow Depth 0.00 in    
Sea Level Pressure  
Sea Level Pressure 29.84 in    
Wind  
Wind Speed 8 mph (SW)    
Max Wind Speed 41 mph    
Max Gust Speed 57 mph    
Visibility 8 miles    
Events Rain , Thunderstorm    
T = Trace of Precipitation, MM = Missing Value Source: NWS Daily Summary

Daily Weather History Graph

Daily Weather History Graph

Search for Another Location

Airport or City:

Astronomy

Aug. 18, 2019 Rise Set
Actual Time 6:12 AM CDT 7:59 PM CDT
Civil Twilight 5:42 AM CDT 8:29 PM CDT
Nautical Twilight 5:06 AM CDT 9:06 PM CDT
Astronomical Twilight 4:26 AM CDT 9:45 PM CDT
Moon 9:51 PM CDT (8/18) 9:00 AM CDT (8/18)
Length of Visible Light 14h 46m
Length of Day
13h 46m
Waning Gibbous, 91% of the Moon is Illuminated
Aug 18
Waning Gibbous
Aug 23
Last Quarter
Aug 30
New
Sep 5
First Quarter
Sep 13
Full

Hourly Weather History & Observations

Time (CDT) Temp. Dew Point Humidity Pressure Visibility Wind Dir Wind Speed Gust Speed Precip Events Conditions
12:36 AM 70.0 °F 66.9 °F 90% 29.86 in 10.0 mi SSW 3.5 mph - N/A Thunderstorm Thunderstorm
12:53 AM 69.1 °F 66.9 °F 93% 29.85 in 9.0 mi Calm Calm - 0.01 in Rain , Thunderstorm Light Thunderstorms and Rain
1:00 AM 68.0 °F 66.9 °F 96% 29.87 in 10.0 mi North 3.5 mph - 0.00 in   Overcast
1:08 AM 68.0 °F 66.9 °F 96% 29.87 in 10.0 mi Calm Calm - 0.00 in Thunderstorm Overcast
1:26 AM 68.0 °F 66.9 °F 96% 29.85 in 10.0 mi SE 4.6 mph - 0.00 in   Overcast
1:42 AM 69.1 °F 66.9 °F 93% 29.83 in 10.0 mi SSE 6.9 mph - 0.00 in Thunderstorm Mostly Cloudy
1:53 AM 69.1 °F 66.9 °F 93% 29.82 in 10.0 mi SSE 9.2 mph - 0.00 in   Mostly Cloudy
2:53 AM 70.0 °F 68.0 °F 93% 29.77 in 10.0 mi ESE 10.4 mph - N/A   Scattered Clouds
3:53 AM 69.1 °F 68.0 °F 96% 29.72 in 10.0 mi SSE 12.7 mph - N/A   Partly Cloudy
4:53 AM 70.0 °F 68.0 °F 93% 29.75 in 8.0 mi WSW 28.8 mph 41.4 mph N/A Thunderstorm Scattered Clouds
5:00 AM 66.0 °F 63.0 °F 90% 29.80 in 2.5 mi NNW 41.4 mph 56.4 mph 0.00 in Rain , Thunderstorm Thunderstorms and Rain
5:06 AM 63.0 °F 61.0 °F 93% 29.83 in 1.0 mi NW 23.0 mph 56.4 mph 0.08 in Rain , Thunderstorm Heavy Thunderstorms and Rain
5:28 AM 62.1 °F 62.1 °F 100% 29.79 in 3.0 mi NNE 9.2 mph 20.7 mph 0.64 in Rain , Thunderstorm Thunderstorms and Rain
5:40 AM 63.0 °F 62.1 °F 97% 29.83 in 4.0 mi South 4.6 mph - 0.66 in Rain , Thunderstorm Light Thunderstorms and Rain
5:53 AM 63.0 °F 62.1 °F 97% 29.82 in 4.0 mi SSW 6.9 mph - 0.68 in Rain , Thunderstorm Thunderstorms and Rain
6:05 AM 63.0 °F 62.1 °F 97% 29.83 in 5.0 mi South 4.6 mph - 0.06 in Rain , Thunderstorm Light Rain
6:18 AM 63.0 °F 63.0 °F 100% 29.84 in 6.0 mi SSW 6.9 mph - N/A Rain , Thunderstorm Thunderstorms and Rain
6:51 AM 62.6 °F 62.6 °F 100% 29.88 in 2.0 mi WSW 6.9 mph - N/A Rain , Thunderstorm Heavy Thunderstorms and Rain
6:53 AM 63.0 °F 62.1 °F 97% 29.86 in 2.0 mi WSW 4.6 mph - N/A Rain , Thunderstorm Heavy Thunderstorms and Rain
7:06 AM 63.0 °F 62.1 °F 97% 29.84 in 4.0 mi NNW 4.6 mph - 0.06 in Rain Rain
7:53 AM 64.0 °F 63.0 °F 96% 29.84 in 10.0 mi SSW 6.9 mph - 0.11 in   Mostly Cloudy
8:53 AM 64.0 °F 64.0 °F 100% 29.82 in 10.0 mi SSW 13.8 mph - 0.01 in   Overcast
9:53 AM 66.9 °F 63.0 °F 87% 29.75 in 10.0 mi SW 8.1 mph - 0.00 in   Partly Cloudy
10:26 AM 66.9 °F 63.0 °F 87% 29.80 in 10.0 mi West 13.8 mph 26.5 mph N/A   Partly Cloudy
10:53 AM 68.0 °F 63.0 °F 84% 29.79 in 10.0 mi West 20.7 mph 29.9 mph N/A   Clear
11:53 AM 69.1 °F 63.0 °F 81% 29.81 in 10.0 mi West 18.4 mph 26.5 mph N/A   Clear
12:53 PM 73.9 °F 64.9 °F 73% 29.81 in 10.0 mi WNW 11.5 mph - N/A   Clear
1:53 PM 75.0 °F 64.9 °F 71% 29.82 in 10.0 mi WNW 6.9 mph - N/A   Clear
2:53 PM 75.9 °F 64.9 °F 69% 29.85 in 10.0 mi WNW 9.2 mph - N/A   Clear
3:53 PM 78.1 °F 66.9 °F 68% 29.85 in 10.0 mi Calm Calm - N/A   Scattered Clouds
4:53 PM 75.9 °F 66.0 °F 71% 29.86 in 10.0 mi West 5.8 mph - N/A   Overcast
5:53 PM 77.0 °F 66.9 °F 71% 29.87 in 10.0 mi Calm Calm - N/A   Overcast
7:53 PM 73.0 °F 69.1 °F 87% 29.87 in 10.0 mi Calm Calm - N/A   Partly Cloudy
8:53 PM 70.0 °F 66.9 °F 90% 29.89 in 10.0 mi South 3.5 mph - N/A   Clear
9:53 PM 68.0 °F 66.0 °F 93% 29.91 in 10.0 mi Calm Calm - N/A   Clear
10:53 PM 66.9 °F 64.9 °F 93% 29.92 in 10.0 mi Calm Calm - N/A   Clear
11:53 PM 64.0 °F 64.0 °F 100% 29.93 in 7.0 mi Calm Calm - N/A   Clear